Regional Weather Roundup
Issued by NWS Newport/Morehead, NC

Current Version | Previous Version | Graphics & Text | Print | Product List | Glossary Off
Versions: 1 2 3 4 5 6 7 8 9 10 11 12 13 14 15 16 17 18 19 20 21 22 23 24 25 26 27 28 29 30 31 32 33 34 35 36 37 38 39 40 41 42 43 44 45 46 47 48 49 50

000
ASUS42 KMHX 162210
RWRMHX
WEATHER ROUNDUP FOR EASTERN NORTH CAROLINA
NATIONAL WEATHER SERVICE NEWPORT/MOREHEAD CITY NC
600 PM EDT TUE SEP 16 2014

NOTE: "FAIR" INDICATES FEW OR NO CLOUDS BELOW 12,000 FEET
WITH NO SIGNIFICANT WEATHER AND/OR OBSTRUCTIONS TO VISIBILITY

NCZ015>017-031-032-045>047-102-103-162300-
NORTH COAST

CITY           SKY/WX    TMP DP  RH WIND       PRES   REMARKS
EDENTON        NOT AVBL
ELIZABETH CITY MOSUNNY   77  60  55 E8        29.96S
KITTY HAWK     PTCLDY    76  65  70 NE5       29.96S
MANTEO         MOSUNNY   76  66  69 NE10      29.97R

$$

NCZ045>047-081-094-103-104-162300-
CENTRAL COAST

CITY           SKY/WX    TMP DP  RH WIND       PRES   REMARKS
FRISCO         SUNNY     77  69  76 SW3       29.95S
SWANQUARTER      N/A     82 N/A N/A SW5       29.91S

$$

NCZ095-097-098-100-101-162300-
SOUTHERN COAST

CITY           SKY/WX    TMP DP  RH WIND       PRES   REMARKS
BEAUFORT       SUNNY     79  71  76 S7        29.96R
CEDAR ISLAND     N/A     81 N/A N/A SE6       30.00S
JACKSONVILLE   MOSUNNY   81  72  74 S7        29.94S
NEWPORT        NOT AVBL
PINEY ISLAND   MOCLDY    81  72  74 S7        29.95R
WILMINGTON     SUNNY     81  70  69 SE7       29.95S


$$

NCZ011>013-027>030-043-044-078>080-089-090>093-098-162300-
COASTAL PLAIN

CITY           SKY/WX    TMP DP  RH WIND       PRES   REMARKS
AHOSKIE        PTSUNNY   75  69  81 CALM      29.96S
CLINTON        SUNNY     83  69  61 CALM      29.95F
ELIZABETHTOWN  SUNNY     83  66  55 CALM      29.95F
GOLDSBORO      MOSUNNY   83  67  59 CALM      29.94S
GREENVILLE     MOSUNNY   81  68  65 N3        29.98S
HAVELOCK       PTSUNNY   80  72  76 SE6       29.96R
KENANSVILLE    NOT AVBL
KINSTON        MOSUNNY   81  66  61 N3        29.96S
NEW BERN       SUNNY     84  65  52 NW7       29.96S
RICHLANDS      SUNNY     82  64  54 CALM      29.95S
ROANOKE RAPIDS NOT AVBL
ROCKY MOUNT    SUNNY     81  64  56 N3        29.96F
WASHINGTON     SUNNY     80  65  59 CALM      29.96S
WHITEVILLE     SUNNY     82  68  62 CALM      29.95S

$$

AMZ130-135-150-152-154-156-158-170-250-252-270-ANZ085-086-088-633-658-670-162300-
MARINE OBSERVATIONS

STATION/POSITION TIME  TEMP    WIND        PRES    WAVE   SWELL
                       AIR SEA DIR/SP/G            HT/PER HT/PER
                 (UTC) (F)     (DEG/KT/KT) (MB)    (FT/S) (FT/S)
CHESAPEAKE LIGHT 2100   74      30/  5/  5 1015.5
BUOY 44014       2200   74 79  340/ 14/ 16 1014.1    2/13   2/13
DUCK             2200   76 77   20/ 11/ 13 1014.1
2E DUCK          2100                        N/A     2/13   2/13
OREGON INLET     2200   76 76   30/  8/ 10 1014.6
BUOY 44095       2200      78                N/A     2/13   2/13
20E OREGON INLET NOT AVBL
HATTERAS CG      2200   79 78  230/  4/  6 1014.6
DIAMOND BUOY     2200   78     280/  2/  4 1014.4    2/ 8   2/ 8
CAPE LOOKOUT     2100   78     180/  7/  8 1014.2
BEAUFORT LAB     2200   79 79  190/  8/  9 1013.9
30 SE NEW RIVER  2200   79 82  150/  6/  6 1014.7    2/14   2/14
5 SE WRIGHTSVILL 2100   76 82  150/  6/  8   N/A
BUOY 41002       2049   79 83  320/  8/ 12 1015.3    3/ 7   3/ 7
BUOY 41004       2200   79 84   10/  8/ 10 1013.5    1/ 8   2/ 8

$$



USA.gov is the U.S. government's official web portal to all federal, state and local government web resources and services.